TimeEDT,TemperatureF,Dew PointF,Humidity,Sea Level PressureIn,VisibilityMPH,Wind Direction,Wind SpeedMPH,Gust SpeedMPH,PrecipitationIn,Events,Conditions,WindDirDegrees,DateUTC
12:14 AM,35.6,35.6,100,30.11,0.8,Calm,Calm,-,N/A,,Mist,0,2011-10-28 04:14:00
12:34 AM,35.6,35.6,100,30.11,7.0,Calm,Calm,-,N/A,,Clear,0,2011-10-28 04:34:00
12:55 AM,33.8,33.8,100,30.12,0.5,Calm,Calm,-,N/A,Fog,Fog,0,2011-10-28 04:55:00
1:15 AM,33.8,33.8,100,30.12,0.8,Calm,Calm,-,N/A,,Mostly Cloudy,0,2011-10-28 05:15:00
1:35 AM,33.8,33.8,100,30.13,4.0,Calm,Calm,-,N/A,,Scattered Clouds,0,2011-10-28 05:35:00
1:50 AM,35.6,35.6,100,30.12,4.0,Calm,Calm,-,N/A,,Clear,0,2011-10-28 05:50:00
2:10 AM,33.8,33.8,100,30.12,1.0,Calm,Calm,-,N/A,,Mist,0,2011-10-28 06:10:00
2:30 AM,33.8,33.8,100,30.12,1.5,Calm,Calm,-,N/A,,Mist,0,2011-10-28 06:30:00
2:51 AM,33.8,33.8,100,30.13,0.5,Calm,Calm,-,N/A,Fog,Fog,0,2011-10-28 06:51:00
3:11 AM,32.0,32.0,100,30.12,1.8,Calm,Calm,-,N/A,,Mostly Cloudy,0,2011-10-28 07:11:00
3:31 AM,32.0,32.0,100,30.13,7.0,Calm,Calm,-,N/A,,Scattered Clouds,0,2011-10-28 07:31:00
3:51 AM,32.0,32.0,100,30.13,10.0,Calm,Calm,-,N/A,,Clear,0,2011-10-28 07:51:00
4:11 AM,32.0,32.0,100,30.13,7.0,Calm,Calm,-,N/A,,Clear,0,2011-10-28 08:11:00
4:31 AM,30.2,30.2,100,30.13,2.5,Calm,Calm,-,N/A,,Clear,0,2011-10-28 08:31:00
4:52 AM,30.2,30.2,100,30.14,1.0,Calm,Calm,-,N/A,,Mist,0,2011-10-28 08:52:00
5:12 AM,30.2,30.2,100,30.14,1.5,Calm,Calm,-,N/A,,Mostly Cloudy,0,2011-10-28 09:12:00
5:32 AM,30.2,30.2,100,30.15,1.0,Calm,Calm,-,N/A,,Mist,0,2011-10-28 09:32:00
6:12 AM,30.2,30.2,100,30.15,2.5,Calm,Calm,-,N/A,,Clear,0,2011-10-28 10:12:00
6:33 AM,30.2,30.2,100,30.16,7.0,Calm,Calm,-,N/A,,Scattered Clouds,0,2011-10-28 10:33:00
6:53 AM,30.2,30.2,100,30.16,10.0,Calm,Calm,-,N/A,,Scattered Clouds,0,2011-10-28 10:53:00
7:13 AM,30.2,30.2,100,30.16,5.0,Calm,Calm,-,N/A,,Clear,0,2011-10-28 11:13:00
7:33 AM,30.2,30.2,100,30.16,10.0,Calm,Calm,-,N/A,,Clear,0,2011-10-28 11:33:00
7:53 AM,30.2,30.2,100,30.17,7.0,Calm,Calm,-,N/A,,Mostly Cloudy,0,2011-10-28 11:53:00
8:13 AM,30.2,30.2,100,30.17,7.0,Calm,Calm,-,N/A,,Scattered Clouds,0,2011-10-28 12:13:00
8:34 AM,30.2,30.2,100,30.18,7.0,Calm,Calm,-,N/A,,Clear,0,2011-10-28 12:34:00
8:54 AM,32.0,32.0,100,30.19,5.0,Calm,Calm,-,N/A,,Clear,0,2011-10-28 12:54:00
9:14 AM,33.8,33.8,100,30.19,5.0,Calm,Calm,-,N/A,,Clear,0,2011-10-28 13:14:00
9:34 AM,35.6,35.6,100,30.19,5.0,Calm,Calm,-,N/A,,Clear,0,2011-10-28 13:34:00
9:54 AM,37.4,37.4,100,30.19,7.0,Calm,Calm,-,N/A,,Clear,0,2011-10-28 13:54:00
10:15 AM,39.2,39.2,100,30.19,10.0,Calm,Calm,-,N/A,,Clear,0,2011-10-28 14:15:00
10:35 AM,41.0,41.0,100,30.19,10.0,Calm,Calm,-,N/A,,Clear,0,2011-10-28 14:35:00
10:50 AM,42.8,42.8,100,30.19,10.0,Calm,Calm,-,N/A,,Clear,0,2011-10-28 14:50:00
11:10 AM,44.6,42.8,93,30.19,10.0,Calm,Calm,-,N/A,,Clear,0,2011-10-28 15:10:00
11:30 AM,46.4,39.2,76,30.19,10.0,Calm,Calm,-,N/A,,Clear,0,2011-10-28 15:30:00
11:51 AM,46.4,37.4,71,30.19,10.0,South,3.5,-,N/A,,Clear,190,2011-10-28 15:51:00
12:11 PM,48.2,35.6,62,30.19,10.0,Calm,Calm,-,N/A,,Clear,0,2011-10-28 16:11:00
12:31 PM,48.2,35.6,62,30.18,10.0,South,5.8,-,N/A,,Clear,170,2011-10-28 16:31:00
12:51 PM,48.2,35.6,62,30.18,10.0,South,8.1,-,N/A,,Scattered Clouds,180,2011-10-28 16:51:00
1:11 PM,50.0,35.6,58,30.17,10.0,South,6.9,-,N/A,,Scattered Clouds,190,2011-10-28 17:11:00
1:31 PM,50.0,35.6,58,30.15,10.0,SW,3.5,-,N/A,,Mostly Cloudy,220,2011-10-28 17:31:00
1:52 PM,48.2,33.8,58,30.15,10.0,SSW,6.9,-,N/A,,Mostly Cloudy,200,2011-10-28 17:52:00
2:12 PM,48.2,35.6,62,30.13,10.0,South,6.9,-,N/A,,Scattered Clouds,190,2011-10-28 18:12:00
2:32 PM,50.0,37.4,62,30.13,10.0,SSE,8.1,-,N/A,,Scattered Clouds,150,2011-10-28 18:32:00
2:52 PM,48.2,35.6,62,30.12,10.0,ESE,4.6,-,N/A,,Scattered Clouds,120,2011-10-28 18:52:00
3:12 PM,48.2,35.6,62,30.11,10.0,Calm,Calm,-,N/A,,Mostly Cloudy,0,2011-10-28 19:12:00
3:32 PM,50.0,35.6,58,30.11,10.0,SSW,3.5,-,N/A,,Scattered Clouds,210,2011-10-28 19:32:00
3:52 PM,51.8,37.4,58,30.10,10.0,SSE,8.1,-,N/A,,Mostly Cloudy,150,2011-10-28 19:52:00
4:13 PM,51.8,35.6,54,30.10,10.0,SSE,3.5,-,N/A,,Scattered Clouds,150,2011-10-28 20:13:00
4:33 PM,48.2,35.6,62,30.10,10.0,SSW,3.5,-,N/A,,Clear,210,2011-10-28 20:33:00
4:53 PM,48.2,35.6,62,30.10,10.0,SSE,3.5,-,N/A,,Scattered Clouds,150,2011-10-28 20:53:00
5:13 PM,48.2,37.4,66,30.10,10.0,SSE,5.8,-,N/A,,Clear,160,2011-10-28 21:13:00
5:33 PM,48.2,35.6,62,30.10,10.0,SSE,6.9,-,N/A,,Scattered Clouds,160,2011-10-28 21:33:00
5:53 PM,48.2,37.4,66,30.10,10.0,SSE,6.9,-,N/A,,Scattered Clouds,150,2011-10-28 21:53:00
6:13 PM,46.4,37.4,71,30.11,10.0,SSE,4.6,-,N/A,,Clear,150,2011-10-28 22:13:00
6:34 PM,46.4,37.4,71,30.11,10.0,SE,3.5,-,N/A,,Clear,130,2011-10-28 22:34:00
6:54 PM,46.4,37.4,71,30.11,10.0,Calm,Calm,-,N/A,,Clear,0,2011-10-28 22:54:00
7:14 PM,44.6,37.4,76,30.11,10.0,Calm,Calm,-,N/A,,Clear,0,2011-10-28 23:14:00
7:34 PM,44.6,37.4,76,30.11,10.0,Calm,Calm,-,N/A,,Clear,0,2011-10-28 23:34:00
7:54 PM,42.8,37.4,81,30.11,10.0,Calm,Calm,-,N/A,,Clear,0,2011-10-28 23:54:00
8:14 PM,42.8,39.2,87,30.11,10.0,Calm,Calm,-,N/A,,Clear,0,2011-10-29 00:14:00
8:35 PM,39.2,37.4,93,30.11,10.0,Calm,Calm,-,N/A,,Clear,0,2011-10-29 00:35:00
8:55 PM,41.0,39.2,93,30.11,10.0,Calm,Calm,-,N/A,,Clear,0,2011-10-29 00:55:00
9:15 PM,39.2,37.4,93,30.11,10.0,Calm,Calm,-,N/A,,Clear,0,2011-10-29 01:15:00
9:35 PM,41.0,37.4,87,30.10,10.0,South,4.6,-,N/A,,Clear,170,2011-10-29 01:35:00
9:55 PM,39.2,35.6,87,30.10,10.0,South,5.8,-,N/A,,Clear,170,2011-10-29 01:55:00
10:10 PM,41.0,35.6,81,30.10,10.0,South,3.5,-,N/A,,Clear,180,2011-10-29 02:10:00
10:30 PM,39.2,35.6,87,30.10,10.0,Calm,Calm,-,N/A,,Clear,0,2011-10-29 02:30:00
10:51 PM,37.4,37.4,100,30.10,10.0,Calm,Calm,-,N/A,,Clear,0,2011-10-29 02:51:00
11:11 PM,37.4,37.4,100,30.10,10.0,Calm,Calm,-,N/A,,Clear,0,2011-10-29 03:11:00
11:31 PM,39.2,37.4,93,30.09,10.0,Calm,Calm,-,N/A,,Clear,0,2011-10-29 03:31:00
11:51 PM,39.2,39.2,100,30.09,10.0,SSE,3.5,-,N/A,,Scattered Clouds,150,2011-10-29 03:51:00